DECAYED

STARLINK-3082, 49162 (Decayed)

Orbit data source: Space-Track

STARLINK-3082, 49162 was a payload satellite owned by SpaceX/Seattle (US) in LEO that was launched on Tue, 14 Sep 2021 UTC via an FALCON 9 launch vehicle from the Air Force Western Test Range (AFWTR). Payload-class satellites include a variety of spacecraft equipped with specific instruments for various scientific and technological missions. These include communications satellites like Starlink; space stations such as the ISS; scientific satellites like the Hubble; Earth observation satellites from companies like Planet Labs, Umbra, and HawkEye 360; GPS; miniature CubeSats for education and research; and military/defense satellites.

Not visible in the next 10 days
Identifier
49162, 2021-082AJ
Orbit
Decayed
Last TLE update
8 months ago
Origin
Manufacturer
SpaceX/Seattle
Mission
Decayed Commercial Communications
Bus & Motor
STARLINK, Unknown motor
Mass
297 kg wet, ~275 kg dry
Launch date (UTC)
2021-09-14 (4 years ago)
Launch vehicle
FALCON 9
Launch site
Air Force Western Test Range (AFWTR)
Object type
Payload
Rocket body
Debris
Shape & HBR
Box + 1 Pan, 8.86 m
Radar Cross Section
13.562 m², Large (>1 m²)

Expand to show TLE details & history

TLE from 8 months ago
0 STARLINK-3082
1 49162U 21082AJ  24312.19783052  .09972559  43796-5  71995-3 0  9996
2 49162  69.9794  65.9690 0008065 295.8401 130.3654 16.40542432174545
Epoch: 2024-11-07T04:44Z
TLE epoch observation values (Epoch: 2024-11-07T04:44:52.556Z)
Latitude
59.45779°
Longitude
-14.25461°
Altitude
177.266 km
Speed
7.804 km/s
True Right ascension
06h 55m 23s
True Declination
59° 17' 37"
Sunlit
Object was in full shadow at epoch
Visualization orbit readout
Visualization observer readout
Orbital elements
Apogee altitude
167.457 km
Perigee altitude
156.907 km
Semi-major axis
6,540.319 km
Eccentricity
0.00081
Inclination
69.9794°
RAAN
65.969°
Arg. of periapsis
295.8401°
True anomaly
Unknown
Mean anomaly
130.3654°
Eccentric anomaly
Unknown
Mean motion
4.10341 °/min
Orbital period
87.73 mins
BSTAR
0.00071995
Loading maneuver chart data...
Loading SW <> Apogee altitude chart data...
Loading historical data...
Loading historical data...
Loading historical data...
Loading historical data...
Loading historical data...
Loading historical data...
Loading historical data...

STARLINK-3082 Visibility

Observer location: undefined°, undefined°

This satellite is decayed
Span
Click to sort rows by Start time (UTC) header in descending order
Start Az.
Max El. time (UTC)
Max El. Az.
Max El.
End time (UTC)
End Az.
|